STARLINK-1830, 46727

Orbit data source: Space-Track

STARLINK-1830, 46727 is a payload satellite owned by SpaceX/Seattle (US) in LEO that was launched on Sun, 18 Oct 2020 UTC via an FALCON 9 launch vehicle from the Air Force Eastern Test Range (AFETR). Payload-class satellites include a variety of spacecraft equipped with specific instruments for various scientific and technological missions. These include communications satellites like Starlink; space stations such as the ISS; scientific satellites like the Hubble; Earth observation satellites from companies like Planet Labs, Umbra, and HawkEye 360; GPS; miniature CubeSats for education and research; and military/defense satellites.

Loading next visibility...
Identifier
46727, 2020-073BK
Orbit
LEO
Country
Flag of USUS
Related business
Manufacturer
SpaceX/Seattle
Mission
Operational Commercial Communications
Bus & Motor
STARLINK, Unknown motor
Mass
260 kg wet, ~248 kg dry
Launch date (UTC)
2020-10-18 (5 years ago)
Launch vehicle
FALCON 9
Launch site
Air Force Eastern Test Range (AFETR)
Object type
Payload
Rocket body
Debris
Shape & HBR
Box + 1 Pan, 4.4 m
Radar Cross Section
13.562 m², Large (>1 m²)

Expand to show TLE details & history
Last TLE update: 2 days ago

TLE from 2 days ago
0 STARLINK-1830
1 46727U 20073BK  25259.46414272  .00003069  00000-0  22477-3 0  9994
2 46727  53.0534 278.7478 0001293  88.0770 272.0367 15.06408144271220
Epoch: 2025-09-16T11:08Z
TLE epoch observation values (Epoch: 2025-09-16T11:08:21.931Z)
Latitude
-0°
Longitude
116.00235°
Altitude
548.034 km
Speed
7.589 km/s
True Right ascension
18h 34m 59s
True Declination
0° 00' 00"
Sunlit
Object was in daylight at epoch
Visualization orbit readout
Latitude
Unknown
Longitude
Unknown
Altitude
Unknown
Speed
Unknown
Apparent Right ascension
Unknown
Apparent Declination
Unknown
Sunlit
N/A
Visualization observer readout
Local Sidereal Time
18:05:25
Azimuth
Unknown
Elevation
Unknown
Doppler factor
Unknown
Orbital elements
Apogee altitude
548.353 km
Perigee altitude
546.562 km
Semi-major axis
6,925.594 km
Eccentricity
0.00013
Inclination
53.0534°
RAAN
278.7478°
Arg. of periapsis
88.077°
True anomaly
272.02189°
Mean anomaly
272.0367°
Eccentric anomaly
272.0293°
Mean motion
3.7658 °/min
Orbital period
95.6 mins
BSTAR
0.00022477
Loading maneuver chart data...
Computing Atmospheric mass density...

Documentation

Showing up to 5 results
|